Regional Weather Roundup
Issued by NWS San Diego, CA

Home | Current Version | Previous Version | Text Only | Print | Product List | Glossary On
Versions: 1 2 3 4 5 6 7 8 9 10 11 12 13 14 15 16 17 18 19 20 21 22 23 24 25 26 27 28 29 30 31 32 33 34 35 36 37 38 39 40 41 42 43 44 45 46 47 48 49 50
000
ASUS46 KSGX 022111
RWRSGX

SAN DIEGO HOURLY WEATHER ROUNDUP
NATIONAL WEATHER SERVICE SAN DIEGO CA
200 PM PDT THU JUL 02 2015

NOTE: "FAIR" INDICATES FEW OR NO CLOUDS BELOW 12,000 FEET WITH NO
SIGNIFICANT WEATHER AND/OR OBSTRUCTIONS TO VISIBILITY.

CAZ042-043-060-061-PZZ750-775-022200-

GREATER SAN DIEGO AREA

CITY           SKY/WX    TMP DP  RH WIND       PRES   REMARKS
LINDBERGH FLD  FAIR      77  64  64 W12       29.97F
POINT LOMA       N/A     75  64  69 W18         N/A
NATIONAL CITY    N/A     78  68  71 W5        29.97F
CHULA VISTA      N/A     76  69  79 W5        29.90F
IMPERIAL BEACH FAIR      75  65  70 W13       29.97F
BROWN FIELD    FAIR      78  65  63 NW9       29.96F
MIRAMAR MCAS   FAIR      85  63  47 NW9       29.96F
MONTGOMERY FLD FAIR      84  65  52 W10       29.96F

$$

NORTH SAN DIEGO COUNTY

CITY           SKY/WX    TMP DP  RH WIND       PRES   REMARKS
CAMP PENDLETON FAIR      82  64  54 SW12      29.95F
OCEANSIDE AP   FAIR      78  65  63 W8        29.95F
OCEANSIDE HBR    N/A     71  67  87 W2        29.99F
VISTA            N/A     83  67  59 W5        29.93F
CARLSBAD       FAIR      75  66  73 W12       29.96S
DEL MAR          N/A     74  68  80 W3        29.98F
LA JOLLA SCRIP   N/A    N/A N/A N/A NW3       29.94F
FALLBROOK        N/A     87  62  42 SW3       29.94F
ESCONDIDO        N/A     91  67  45 W12       29.94F
SAN MARCOS       N/A     85  69  57 SW12      29.93F
POWAY            N/A     89  67  46 W7        29.94F

$$

EAST SAN DIEGO COUNTY

CITY           SKY/WX    TMP DP  RH WIND       PRES   REMARKS
RAMONA         FAIR      89  58  34 NW9       29.98F
SANTEE LAKES     N/A     87  69  53 S12       29.93F
LA MESA          N/A     85  68  57 NW8       29.71F
JAMUL            N/A     86  69  55 W3        29.93F
DESCANSO N       N/A     84  63  47 W8        29.83F
CAMPO            N/A     89  58  34 W12       29.99F

$$

ORANGE COUNTY AND THE LOS ANGELES BASIN

CITY           SKY/WX    TMP DP  RH WIND       PRES   REMARKS
JOHN WAYNE AP  FAIR      78  63  59 W8        29.96F
LAKE FOREST FR   N/A     88  61  39 W3        29.85F
SANTA ANA        N/A     85  67  54 CALM      29.91F
HUNTINGTON BCH   N/A     75  67  75 SW7       29.99F
LOS ALAMITOS   MOSUNNY   78  65  63 SW10      29.96F
FULLERTON      FAIR      83  62  49 SW8G16    29.95F
LONG BEACH     FAIR      79  63  57 S7        29.96F
L.A. AP        FAIR      73  63  70 W15       29.98F
L.A. DOWNTOWN  FAIR      83  62  49 W6        29.96F

$$

THE INLAND EMPIRE

CITY           SKY/WX    TMP DP  RH WIND       PRES   REMARKS
CORONA         FAIR      89  60  37 NW14G20   29.94F
CHINO          FAIR      94  53  25 SW13G20   29.96F
ONTARIO        FAIR      90  56  31 SW15      29.96F
SAN BERNARDINO MOSUNNY   91  48  22 W6        29.96F
RIVERSIDE AP   FAIR      92  53  26 W9G18     29.95F
MORENO VALLEY    N/A     93  58  29 S5        29.94F
MARCH ARB      FAIR      91  54  28 W10G18    29.97F
HORSETHIEF CYN   N/A     91  56  29 NW9       29.89F
PERRIS           N/A     92  55  28 W9          N/A
MENIFEE          N/A     92  62  37 E7        30.01F
HEMET EAST       N/A     88  55  32 W5        29.95F
FRENCH VALLEY  FAIR      88  57  35 S7        29.98F
TEMECULA         N/A     89  55  31 SW5       29.93F

$$

SAN BERNARDINO AND RIVERSIDE COUNTY MOUNTAINS

CITY           SKY/WX    TMP DP  RH WIND       PRES   REMARKS
BIG BEAR AP    PTSUNNY   70  50  49 CALM      30.31S
ANGELUS OAKS     N/A     77  55  46 W3        29.86F
PINE COVE        N/A     74  55  50 NW3       29.94S

$$

SOUTHERN DESERT INCLUDING THE COACHELLA VALLEY

CITY           SKY/WX    TMP DP  RH WIND       PRES   REMARKS
PALM SPRINGS   FAIR     107  56  18 NW16G23   29.84F HX 106
THOUSAND PALMS   N/A    104  60  23 S6        29.81F HX 105
PALM DESERT      N/A    105  65  26 E3        29.15S HX 109
THERMAL        FAIR     104  64  27 SE12      29.77F HX 107
BLYTHE         FAIR     103  63  27 VRB6      29.81F HX 105
IMPERIAL AP    FAIR     104  58  21 VRB5      29.79F HX 104
EL CENTRO NAS  FAIR     106  55  18 W7        29.80F HX 105
YUMA AZ        FAIR     104  62  25 W9        29.82F HX 106
MEXICALI       SUNNY    102  54  19 S5        29.82F HX 100

$$

UPPER DESERT

CITY           SKY/WX    TMP DP  RH WIND       PRES   REMARKS
VICTORVILLE AP FAIR      93  48  21 SW3       30.00F
HESPERIA         N/A     92  54  27 W9        29.96F
APPLE VALLEY     N/A     93  51  23 S16       30.04S
PALMDALE       FAIR      95  51  22 W18G24    29.99S
LANCASTER      FAIR      96  52  22 SW13G23   29.98F
EDWARDS AFB    MOSUNNY   97  52  22 VRB7      29.94F
DAGGETT        FAIR     101  50  18 VRB5      29.91F HX  98
29 PALMS N     FAIR      97  56  25 VRB5      29.99F HX  95
NEEDLES        FAIR     105  53  17 S7        29.83  HX 103

$$

REGIONAL REPORTS

CITY           SKY/WX    TMP DP  RH WIND       PRES   REMARKS
SANTA BARBARA  FAIR      76  60  57 SW9       29.97F
SANDBERG       FAIR      87  48  25 S15G23    30.15F
LAS VEGAS NV   FAIR     100  58  24 S8        29.87F HX  99
PHOENIX AZ     FAIR     104  58  21 SW12G25   29.84F HX 104
TIJUANA        SUNNY     81  63  54 W15       29.98F
ENSENADA NW      N/A     71  32  23 W2        29.96F

$$

OFFSHORE ISLANDS

CITY           SKY/WX    TMP DP  RH WIND       PRES   REMARKS
CATALINA ARPT  FAIR      77  58  51 W8        30.04F
SAN CLEMENTE I PTSUNNY   69  59  70 W13       30.01F
SAN NICOLAS IS PTSUNNY   75  61  61 SW9       30.00F

$$

MARINE AND OFFSHORE BUOY REPORTS

STATION/POSITION SKY/WX   TEMP    WIND        PRES    SWELL
                          AIR SEA DIR/SP/G            HT/PER/DIR
                          (F)     (DEG/KT/KT) (MB)    (FT/S/D)
TANNER BANKS               63 63  290/  8/ 10 1016.1F   3/320/ 8
S CLEMENTE BASIN           65 68  290/  8/ 10 1015.3F   3/210/15
SAN NICOLAS IS.               65                N/A     3/190/15
SO. S. ROSA ISLA           62 62  280/ 10/ 12 1015.4R   3/ 9
W. S. BARBARA CH           62 62  290/  8/ 10 1015.0F   3/310/ 9
M. S. BARBARA CH           63 64  270/  8/ 10 1015.8F
S. MONICA BASIN            67 70  250/  4/  6 1015.5F   2/130/15
S PEDRO CHANNEL               70                N/A     2/180/15
DANA POINT                    70                N/A     2/190/15
OCEANSIDE OFFSHR              70                N/A     2/190/15
TORREY PINES OTR              72                N/A     2/210/15
LA JOLLA 1                 71 71  290/  6/  8 1015.0F
MISSION BAY BUOY              72                N/A     2/210/15
SAN DIEGO BAY                 71              1015.6S
POINT LOMA SOUTH              71                N/A     2/180/14

$$



USA.gov is the U.S. government's official web portal to all federal, state and local government web resources and services.